Weather History for KGSP - April, 2012

Change the Weather History Date:

Thursday, April 5, 2012

  Actual Average Record
Temperature  
Mean Temperature 66 °F 58 °F  
Max Temperature 80 °F 70 °F 90 °F (1934)
Min Temperature 52 °F 46 °F 25 °F (1904)
Degree Days  
Heating Degree Days 0 8  
Month to date heating degree days 0 41  
Since 1 July heating degree days 2260 2874  
Cooling Degree Days 1 1  
Month to date cooling degree days 18 5  
Year to date cooling degree days 84 13  
Growing Degree Days 15 (Base 50)    
Moisture  
Dew Point 56 °F    
Average Humidity 73    
Maximum Humidity 93    
Minimum Humidity 52    
Precipitation  
Precipitation 0.59 in 0.12 in 2.52 in (1897)
Month to date precipitation 0.77 0.59  
Year to date precipitation 9.38 12.90  
Snow  
Snow 0.00 in 0.00 in T in (2011)
Month to date snowfall 0.0 0.0  
Since 1 July snowfall T 4.7  
Snow Depth 0.00 in    
Sea Level Pressure  
Sea Level Pressure 29.70 in    
Wind  
Wind Speed 7 mph (NE)    
Max Wind Speed 24 mph    
Max Gust Speed 30 mph    
Visibility 9 miles    
Events Rain , Thunderstorm    
T = Trace of Precipitation, MM = Missing Value Source: NWS Daily Summary

Daily Weather History Graph

Daily Weather History Graph

Search for Another Location

Airport or City:

Trip Planner

Search our weather history database for the weather conditions in past years. The results will help you decide how hot, cold, wet, or windy it might be!

Date:

Astronomy

Apr. 05, 2012 Rise Set
Actual Time 7:09 AM EDT 7:53 PM EDT
Civil Twilight 6:44 AM EDT 8:19 PM EDT
Nautical Twilight 6:13 AM EDT 8:49 PM EDT
Astronomical Twilight 5:42 AM EDT 9:20 PM EDT
Moon 6:58 PM EDT (4/5) 6:03 AM EDT (4/5)
Length of Visible Light 13h 35m
Length of Day
12h 44m
Waxing Gibbous, 98% of the Moon is Illuminated
Apr 5
Waxing Gibbous
Apr 6
Full
Apr 13
Last Quarter
Apr 21
New
Apr 29
First Quarter

Hourly Weather History & Observations

Time (EDT) Temp. Dew Point Humidity Pressure Visibility Wind Dir Wind Speed Gust Speed Precip Events Conditions
12:53 AM 63.0 °F 61.0 °F 93% 29.67 in 10.0 mi Calm Calm - N/A   Clear
1:53 AM 63.0 °F 61.0 °F 93% 29.65 in 10.0 mi Calm Calm - N/A   Clear
2:53 AM 64.0 °F 61.0 °F 90% 29.65 in 10.0 mi Calm Calm - N/A   Clear
3:53 AM 64.0 °F 60.1 °F 87% 29.65 in 10.0 mi Calm Calm - N/A   Partly Cloudy
4:53 AM 63.0 °F 60.1 °F 90% 29.65 in 10.0 mi Calm Calm - N/A   Overcast
5:53 AM 64.0 °F 59.0 °F 84% 29.65 in 10.0 mi Calm Calm - N/A   Overcast
6:53 AM 63.0 °F 59.0 °F 87% 29.66 in 10.0 mi Calm Calm - N/A   Mostly Cloudy
7:53 AM 61.0 °F 57.9 °F 90% 29.68 in 10.0 mi Calm Calm - N/A   Clear
8:53 AM 70.0 °F 61.0 °F 73% 29.68 in 10.0 mi Calm Calm - N/A   Clear
9:53 AM 73.0 °F 59.0 °F 61% 29.68 in 10.0 mi NE 5.8 mph - N/A   Clear
10:53 AM 73.0 °F 57.9 °F 59% 29.70 in 10.0 mi East 6.9 mph - N/A   Clear
11:53 AM 75.0 °F 57.9 °F 55% 29.70 in 10.0 mi NE 6.9 mph - N/A   Scattered Clouds
12:53 PM 78.1 °F 59.0 °F 52% 29.67 in 10.0 mi East 9.2 mph - N/A   Clear
1:53 PM 78.1 °F 59.0 °F 52% 29.65 in 10.0 mi SE 11.5 mph 18.4 mph N/A   Partly Cloudy
2:53 PM 79.0 °F 59.0 °F 50% 29.62 in 10.0 mi SE 12.7 mph - N/A   Mostly Cloudy
2:59 PM 78.8 °F 59.0 °F 51% 29.64 in 10.0 mi SE 12.7 mph 19.6 mph N/A Thunderstorm Mostly Cloudy
3:53 PM 77.0 °F 60.1 °F 56% 29.60 in 10.0 mi North 8.1 mph 26.5 mph N/A Thunderstorm Mostly Cloudy
4:53 PM 66.0 °F 59.0 °F 78% 29.64 in 10.0 mi North 16.1 mph 26.5 mph 0.00 in Thunderstorm Thunderstorm
5:53 PM 64.0 °F 57.0 °F 78% 29.66 in 10.0 mi NNE 18.4 mph 26.5 mph N/A   Mostly Cloudy
6:53 PM 59.0 °F 53.1 °F 81% 29.68 in 10.0 mi NE 16.1 mph 27.6 mph N/A   Mostly Cloudy
7:53 PM 57.0 °F 51.1 °F 81% 29.73 in 10.0 mi NE 11.5 mph - N/A   Overcast
8:37 PM 55.4 °F 51.8 °F 88% 29.75 in 10.0 mi NE 12.7 mph - N/A   Overcast
8:53 PM 55.0 °F 51.1 °F 86% 29.73 in 10.0 mi NE 12.7 mph - N/A   Overcast
9:53 PM 54.0 °F 50.0 °F 86% 29.75 in 10.0 mi NNE 8.1 mph - 0.00 in   Overcast
10:02 PM 53.6 °F 51.8 °F 94% 29.78 in 10.0 mi NNW 5.8 mph - 0.00 in Rain Light Rain
10:30 PM 53.6 °F 51.8 °F 94% 29.79 in 9.0 mi North 9.2 mph - 0.07 in Rain Light Rain
10:46 PM 53.6 °F 51.8 °F 94% 29.79 in 1.8 mi NE 6.9 mph - 0.19 in Rain Heavy Rain
10:53 PM 52.0 °F 51.1 °F 97% 29.76 in 1.5 mi NE 4.6 mph - 0.38 in Rain Heavy Rain
11:04 PM 51.8 °F 51.8 °F 100% 29.78 in 2.5 mi NE 6.9 mph - 0.14 in Rain Heavy Rain
11:13 PM 51.8 °F 51.8 °F 100% 29.77 in 5.0 mi NNE 10.4 mph - 0.18 in Rain Rain
11:23 PM 51.8 °F 51.8 °F 100% 29.78 in 6.0 mi NNE 8.1 mph - 0.19 in Rain Light Rain
11:32 PM 53.6 °F 51.8 °F 94% 29.78 in 7.0 mi NNE 6.9 mph - 0.20 in Rain Light Rain
11:53 PM 53.1 °F 51.1 °F 93% 29.75 in 10.0 mi NNE 8.1 mph - 0.21 in Rain Light Rain